Total_Precipitation_Accumulation
1.80 2.24 2.36 2.41 2.71 2.97 3.14 3.11 3.32 3.70 3.93 4.29 4.26 4.45 4.90 5.25 5.38 5.47 5.46 5.37 5.30 5.31 5.14 4.99 5.09 4.94 4.69 4.45 4.38 4.35 4.25 3.92 3.83 3.82 3.41 2.79 2.39 2.19 2.02 2.01 2.05 1.90 1.90
1.65 2.09 2.28 2.58 2.83 2.99 3.23 3.35 3.49 3.97 4.44 4.97 5.47 5.86 6.20 6.19 6.30 6.25 6.15 5.85 5.66 5.57 5.40 5.38 5.22 4.99 4.83 4.56 4.37 4.33 4.23 3.89 3.85 3.89 3.85 3.12 2.60 2.05 1.61 1.70 1.76 1.72 1.78
1.74 1.96 2.17 2.45 2.69 2.95 3.20 3.36 3.72 4.38 5.20 5.73 6.20 6.75 7.05 6.73 6.45 6.17 6.10 6.02 5.95 5.84 5.69 5.66 5.40 5.16 4.89 4.54 4.27 4.13 4.03 3.89 3.86 3.77 3.90 3.36 2.70 2.20 1.78 1.57 1.49 1.55 1.70
1.71 1.92 2.09 2.30 2.58 2.94 3.09 3.31 3.97 4.70 5.35 5.92 6.54 7.13 7.41 7.43 7.21 6.65 6.17 5.77 5.49 5.27 5.14 5.09 4.94 4.75 4.45 4.20 3.91 3.80 3.74 3.85 3.70 3.64 3.46 3.20 2.81 2.57 2.20 1.85 1.63 1.56 1.58
1.63 1.80 1.96 2.14 2.27 2.62 3.13 3.49 4.09 4.78 5.42 6.18 6.93 7.38 7.62 7.60 7.23 6.43 5.66 5.11 4.80 4.52 4.28 4.20 4.12 3.98 3.78 3.59 3.50 3.51 3.45 3.41 3.27 3.14 3.13 3.13 3.05 2.74 2.41 2.10 1.83 1.74 1.63
1.44 1.51 1.72 1.87 2.17 2.55 2.97 3.46 3.77 4.38 5.07 5.69 6.28 6.51 6.71 6.64 6.21 5.78 5.29 4.88 4.36 3.90 3.54 3.38 3.29 3.15 3.04 3.04 3.05 3.10 3.07 3.08 3.04 2.96 2.85 2.79 2.77 2.59 2.49 2.22 1.98 1.97 1.83
1.37 1.58 1.85 1.85 2.13 2.45 2.84 3.30 3.68 4.05 4.57 5.13 5.63 5.89 6.06 5.96 5.47 5.03 4.61 4.21 3.72 3.31 2.98 2.77 2.71 2.64 2.60 2.60 2.72 2.81 2.75 2.69 2.71 2.68 2.61 2.56 2.49 2.41 2.40 2.43 2.23 1.97 1.74
1.45 1.55 1.69 1.78 2.09 2.34 2.62 3.03 3.36 3.72 3.95 4.19 4.59 4.84 5.01 4.88 4.55 4.09 3.63 3.33 3.03 2.70 2.50 2.37 2.28 2.20 2.12 2.11 2.26 2.40 2.47 2.43 2.45 2.44 2.52 2.44 2.31 2.28 2.25 2.28 2.34 2.24 2.01
1.29 1.43 1.61 1.74 1.94 2.25 2.62 2.88 3.03 3.24 3.43 3.66 3.76 3.76 3.87 3.80 3.57 3.28 2.98 2.68 2.39 2.10 1.97 1.93 1.89 1.84 1.80 1.86 2.02 2.09 2.06 2.08 2.14 2.23 2.33 2.30 2.27 2.27 2.21 2.27 2.34 2.40 2.30
1.28 1.32 1.47 1.66 1.76 1.85 2.20 2.53 2.62 2.75 2.84 2.94 3.00 2.93 2.99 2.90 2.85 2.67 2.44 2.18 2.01 1.78 1.68 1.64 1.65 1.67 1.63 1.67 1.73 1.82 1.85 1.83 1.83 1.96 2.11 2.16 2.18 2.28 2.32 2.41 2.44 2.43 2.42
1.42 1.40 1.47 1.54 1.67 1.81 1.99 2.23 2.44 2.45 2.49 2.62 2.60 2.51 2.57 2.55 2.53 2.41 2.25 2.10 2.03 1.87 1.73 1.62 1.67 1.68 1.60 1.57 1.60 1.58 1.63 1.72 1.74 1.77 1.87 1.96 2.01 2.11 2.15 2.22 2.25 2.33 2.37
1.40 1.37 1.37 1.36 1.44 1.67 1.90 2.06 2.19 2.20 2.26 2.34 2.42 2.51 2.53 2.44 2.32 2.13 2.02 1.90 1.79 1.63 1.55 1.51 1.57 1.54 1.42 1.41 1.38 1.32 1.36 1.46 1.56 1.63 1.70 1.77 1.78 1.85 1.83 1.92 1.99 2.02 2.08
1.56 1.45 1.36 1.34 1.38 1.52 1.64 1.79 1.99 2.10 2.14 2.15 2.13 2.30 2.36 2.23 2.07 1.94 1.87 1.77 1.62 1.55 1.54 1.49 1.46 1.44 1.34 1.28 1.24 1.24 1.23 1.21 1.29 1.40 1.45 1.51 1.52 1.50 1.46 1.52 1.54 1.64 1.75
1.70 1.48 1.41 1.38 1.42 1.50 1.53 1.57 1.70 1.88 2.02 2.11 2.27 2.31 2.23 2.09 1.99 1.80 1.62 1.52 1.43 1.45 1.51 1.45 1.37 1.28 1.20 1.14 1.17 1.21 1.21 1.16 1.17 1.18 1.22 1.24 1.18 1.15 1.18 1.20 1.25 1.40 1.66
1.60 1.46 1.43 1.51 1.52 1.48 1.47 1.50 1.64 1.72 1.95 2.06 2.07 2.03 1.96 1.88 1.85 1.78 1.63 1.47 1.34 1.29 1.37 1.32 1.27 1.19 1.08 1.02 1.05 1.11 1.11 1.10 1.06 1.06 1.06 1.02 0.99 1.02 1.00 0.95 1.06 1.27 1.52
1.48 1.43 1.38 1.49 1.46 1.41 1.37 1.34 1.47 1.50 1.64 1.77 1.78 1.72 1.70 1.74 1.69 1.66 1.55 1.45 1.35 1.28 1.30 1.27 1.18 1.04 0.88 0.90 0.91 0.88 0.92 1.03 1.09 1.05 0.96 0.91 0.87 0.86 0.87 0.88 0.96 1.09 1.21
1.64 1.66 1.68 1.69 1.54 1.42 1.35 1.39 1.46 1.48 1.55 1.62 1.57 1.58 1.58 1.55 1.52 1.38 1.32 1.36 1.39 1.32 1.25 1.17 1.06 0.95 0.88 0.82 0.79 0.82 0.89 0.98 1.06 1.08 1.08 0.94 0.79 0.87 0.90 0.92 0.97 1.01 1.05
1.95 1.96 1.90 1.76 1.61 1.48 1.44 1.46 1.45 1.49 1.58 1.56 1.49 1.44 1.44 1.38 1.35 1.32 1.31 1.31 1.31 1.28 1.23 1.13 1.02 0.93 0.84 0.81 0.79 0.82 0.83 0.94 0.99 1.00 1.02 1.03 0.98 0.93 0.98 0.95 0.97 0.99 1.05
1.94 1.86 1.77 1.68 1.57 1.46 1.41 1.38 1.39 1.38 1.38 1.34 1.31 1.24 1.25 1.30 1.30 1.27 1.34 1.32 1.23 1.18 1.12 1.05 1.02 0.97 0.85 0.78 0.75 0.79 0.87 0.94 0.91 0.84 0.83 0.83 0.84 0.85 0.94 1.01 1.07 1.07 1.06
1.59 1.63 1.64 1.54 1.44 1.35 1.27 1.26 1.29 1.28 1.24 1.21 1.21 1.11 1.10 1.15 1.23 1.25 1.28 1.20 1.13 1.09 0.97 0.93 0.98 0.97 0.91 0.79 0.69 0.73 0.76 0.82 0.81 0.78 0.76 0.75 0.71 0.69 0.68 0.79 0.98 1.09 1.05
1.36 1.37 1.50 1.54 1.37 1.18 1.14 1.20 1.19 1.17 1.06 1.04 1.10 1.09 1.06 1.07 1.08 1.10 1.16 1.12 1.05 1.03 1.01 0.99 1.01 1.01 0.95 0.81 0.70 0.68 0.67 0.69 0.73 0.76 0.76 0.74 0.65 0.56 0.57 0.69 0.85 0.92 0.91
1.25 1.24 1.37 1.34 1.18 1.05 1.09 1.16 1.14 1.03 0.94 1.01 1.12 1.12 1.08 0.97 0.95 1.09 1.14 1.08 1.03 0.98 1.02 1.03 1.03 1.03 0.99 0.83 0.71 0.65 0.63 0.65 0.68 0.72 0.71 0.67 0.62 0.54 0.57 0.64 0.76 0.80 0.91
1.10 1.11 1.17 1.17 1.08 1.02 1.07 1.12 1.08 0.96 0.99 1.06 1.11 1.12 1.04 1.01 1.00 1.06 1.06 1.00 0.97 0.89 0.89 0.91 0.94 0.94 0.87 0.79 0.71 0.66 0.61 0.61 0.64 0.65 0.64 0.61 0.63 0.64 0.73 0.79 0.80 0.88 1.07
0.98 0.98 1.05 1.06 1.01 0.93 0.94 0.95 0.88 0.87 1.00 1.09 1.06 1.05 1.06 1.04 0.98 0.94 0.91 0.88 0.87 0.81 0.78 0.80 0.82 0.79 0.76 0.69 0.60 0.57 0.56 0.56 0.60 0.63 0.68 0.75 0.81 0.83 0.87 0.92 1.01 1.07 1.14
0.93 0.96 1.04 1.05 0.93 0.86 0.82 0.80 0.81 0.88 1.00 1.01 0.93 0.91 0.94 0.92 0.88 0.78 0.73 0.72 0.67 0.59 0.58 0.59 0.60 0.59 0.59 0.58 0.53 0.50 0.52 0.50 0.54 0.61 0.75 0.93 1.00 1.02 1.00 0.99 1.02 1.06 1.07
0.91 0.95 0.93 0.93 0.87 0.78 0.74 0.76 0.78 0.79 0.90 0.89 0.83 0.79 0.81 0.80 0.74 0.70 0.66 0.60 0.49 0.46 0.43 0.41 0.43 0.43 0.47 0.46 0.40 0.42 0.45 0.46 0.55 0.64 0.86 1.01 1.05 1.07 0.97 0.92 0.90 0.90 0.90